Lid_Strength_Index
3 4 4 6 9 9 12 10 7 8 8 6 5 6 7 7 9 12 2 1 0 0 -1 -1 -1 -2 -2 -2 -2 -2 -2 -2 -2 -2 -2 -2 -2 -2 -2 -2 -2 -3 -2 -2 -2 -2 -2 -2 -2
6 5 5 6 10 13 12 8 9 8 6 5 6 7 7 8 4 4 3 1 -0 -0 -0 -1 -1 -2 -2 -2 -2 -2 -2 -2 -2 -2 -2 -2 -2 -2 -2 -2 -2 -3 -2 -2 -2 -2 -2 -2 -2
5 6 8 9 11 12 12 9 8 7 5 6 7 5 6 7 4 3 1 1 -0 0 -0 -1 -1 -2 -2 -2 -2 -2 -2 -3 -3 -2 -2 -2 -2 -2 -2 -2 -2 -2 -2 -2 -2 -2 -2 -2 -2
6 7 7 11 11 10 9 8 7 7 6 5 6 8 5 3 3 2 0 0 0 0 -0 -1 -2 -2 -2 -2 -2 -2 -3 -3 -2 -3 -2 -2 -2 -2 -2 -3 -2 -2 -2 -2 -2 -2 -2 -2 -2
7 7 11 11 11 10 8 8 6 7 7 6 6 8 7 3 1 1 1 0 1 1 -0 -1 -1 -2 -2 -2 -2 -2 -2 -3 -2 -2 -2 -2 -2 -2 -2 -2 -2 -2 -2 -2 -2 -2 -2 -2 -2
8 8 12 13 11 9 8 8 7 7 6 6 8 7 7 2 2 1 1 1 0 1 -0 -1 0 -1 -2 -2 -2 -2 -2 -2 -2 -2 -2 -2 -2 -2 -2 -2 -2 -2 -2 -2 -2 -2 -2 -2 -2
9 9 11 11 11 9 8 7 7 7 7 7 5 8 6 4 2 1 1 1 0 0 -0 -0 -0 -0 -0 -1 -1 -1 -2 -2 -2 -2 -2 -2 -2 -2 -2 -2 -2 -2 -2 -2 -2 -2 -2 -2 -2
8 9 10 10 11 11 7 7 6 7 7 5 4 8 8 4 2 1 1 1 1 0 0 0 -0 -0 -0 -0 0 -0 -1 -1 -1 -1 -1 -1 -1 -2 -2 -1 -2 -2 -2 -2 -2 -2 -2 -2 -2
7 10 12 11 10 10 8 7 6 6 6 6 5 5 4 2 2 2 2 2 1 1 1 0 0 0 0 -0 0 0 -0 -0 -0 -0 -0 -0 -1 -1 -0 -1 -1 -2 -2 -2 -2 -1 -1 -1 -1
10 11 10 8 8 9 8 9 9 7 6 7 6 4 3 3 3 3 3 3 3 2 1 1 1 0 0 -1 -0 -0 -0 -0 -0 -0 -0 -0 0 0 -0 0 -1 -2 -2 -2 -2 -1 -1 -0 1
10 11 8 9 10 9 9 9 6 7 8 6 6 6 4 4 4 3 3 3 3 1 1 1 1 0 0 0 0 0 0 0 0 0 0 0 -0 0 0 0 1 1 1 0 -0 1 1 1 1
12 10 10 9 10 10 11 10 7 7 7 5 6 4 4 4 4 4 3 3 2 2 1 0 1 1 0 0 0 0 0 0 0 0 0 1 1 1 1 1 1 1 1 1 1 1 1 1 1
12 11 10 10 11 11 10 11 10 9 6 6 6 4 4 4 4 3 2 2 2 2 1 1 1 1 1 0 0 0 1 1 1 0 0 0 1 1 1 1 1 1 1 1 1 1 1 1 1
10 10 11 11 11 11 12 12 11 9 7 7 6 5 4 4 4 3 3 3 2 2 1 1 1 0 -0 1 1 0 0 1 0 1 0 0 1 1 1 1 1 1 1 1 1 1 1 1 1
8 11 12 12 11 12 12 13 12 10 9 8 7 6 4 4 3 4 3 3 2 2 1 1 1 0 0 0 1 1 0 0 0 0 0 0 0 1 1 1 1 1 1 1 1 1 1 2 2
11 11 13 10 10 12 12 13 10 10 10 9 8 7 5 4 3 3 2 2 2 2 1 1 0 0 0 0 0 1 1 1 0 0 0 0 0 0 1 1 1 1 1 1 2 2 2 2 2
12 14 13 11 10 11 13 12 9 8 10 11 9 8 6 5 4 3 3 2 2 2 1 1 1 1 0 1 0 1 1 1 1 1 0 1 0 -0 1 1 1 1 1 2 2 2 2 3 2
15 14 13 12 10 10 13 13 9 11 11 11 10 9 7 5 4 3 3 2 2 2 1 1 1 1 1 1 1 1 1 1 1 1 1 0 1 0 1 1 1 1 2 1 1 2 1 2 1
11 12 13 11 10 12 12 11 10 9 12 12 12 12 9 6 4 3 3 3 2 2 2 1 1 1 1 1 1 1 2 1 1 1 1 1 0 1 1 1 1 2 2 2 2 2 3 3 2
11 13 13 10 12 14 13 13 11 10 9 9 11 11 11 10 7 4 3 3 2 2 2 1 1 1 1 1 1 1 1 1 1 0 0 0 0 0 1 1 2 2 2 1 2 4 4 3 3
12 12 12 13 13 14 15 15 13 11 10 9 9 9 9 10 10 8 4 3 2 2 2 2 1 1 1 1 1 1 1 2 1 1 1 1 1 1 2 2 2 2 1 2 2 3 3 3 3
14 10 11 12 14 16 14 18 13 11 11 11 10 9 9 9 10 9 6 4 3 2 2 2 1 1 1 1 1 2 2 3 2 1 1 1 1 1 1 1 1 1 2 2 2 2 2 3 4
12 10 11 12 14 15 15 19 16 12 13 12 11 10 9 8 10 10 7 4 3 2 2 2 2 2 2 1 1 1 2 1 1 2 2 1 1 1 1 1 1 1 2 2 2 3 3 3 3
10 11 12 14 15 18 15 15 16 13 12 12 11 10 10 9 9 10 9 5 3 3 2 2 2 2 2 1 1 2 2 2 2 2 2 2 1 1 1 1 1 1 2 2 2 2 3 3 3
12 15 20 20 19 19 15 15 14 11 10 11 10 10 11 9 9 9 10 10 7 5 3 3 2 2 2 2 1 1 1 2 2 2 2 2 2 1 1 1 1 1 1 1 2 2 3 3 3
13 13 18 22 21 19 18 19 16 11 9 9 10 11 11 12 10 9 9 9 9 7 6 5 4 3 3 2 2 1 1 1 1 2 2 2 2 1 1 1 2 2 2 2 2 2 2 2 3
13 14 11 18 22 20 18 16 13 11 12 12 12 12 12 11 11 11 10 9 9 9 9 7 7 6 4 3 2 2 2 2 2 2 2 2 2 2 2 2 2 2 2 2 2 3 3 4 3
11 10 15 15 22 23 19 18 16 14 13 12 12 12 12 11 11 11 11 10 10 10 10 9 9 9 8 6 4 3 2 3 2 3 3 3 3 3 2 1 2 2 3 3 3 3 4 4 4
15 14 13 13 15 19 20 18 14 13 12 12 13 12 13 12 12 11 11 10 10 10 10 10 10 10 9 8 6 4 4 4 3 3 3 2 2 2 1 2 2 2 2 3 3 4 5 5 6
11 13 11 15 18 18 18 18 14 13 12 12 13 12 13 13 12 12 11 10 10 9 9 9 9 9 9 7 5 4 4 4 4 4 4 2 1 1 1 3 3 3 3 4 5 6 6 6 7